FW8253 Weather Reports


time (UTC)temp
F
wind
direction
speed
knots
gust
knots
rain 1hr
in
rain 24hr
in
rain mn
in
humidity
%
barometer
mb
20260831234336 86 230 0.0 0.0 0.00 0.00 0.00 72 1018.4
20260831233832 86 230 0.0 0.0 0.00 0.00 0.00 72 1018.3
20260831233327 86 230 0.0 0.0 0.00 0.00 0.00 72 1018.4
20260831232822 87 231 0.0 0.0 0.00 0.00 0.00 70 1018.5
20260831232318 88 228 0.0 0.0 0.00 0.00 0.00 67 1018.4
20260831231814 88 227 0.0 0.0 0.00 0.00 0.00 65 1018.6
20260831231311 89 209 0.0 0.0 0.00 0.00 0.00 64 1018.4
20260831230805 89 223 0.0 0.0 0.00 0.00 0.00 63 1018.5
20260831230301 90 222 0.0 0.0 0.00 0.00 0.00 62 1018.3
20260831225800 91 227 0.0 0.0 0.00 0.00 0.00 59 1018.5
20260831225255 91 211 0.0 0.0 0.00 0.00 0.00 59 1018.4
20260831224750 91 208 0.0 0.0 0.00 0.00 0.00 57 1018.2
20260831224245 92 188 0.0 0.0 0.00 0.00 0.00 56 1018.1
20260831223740 93 217 0.0 0.0 0.00 0.00 0.00 56 1018.2
20260831223237 93 232 0.0 0.0 0.00 0.00 0.00 55 1018.3
20260831222733 93 217 0.0 0.0 0.00 0.00 0.00 56 1018.3
20260831222228 93 212 0.0 0.0 0.00 0.00 0.00 57 1018.4
20260831221723 93 223 0.0 0.0 0.00 0.00 0.00 56 1018.4
20260831221219 93 226 0.0 0.0 0.00 0.00 0.00 56 1018.2
20260831220714 93 46 0.0 0.0 0.00 0.00 0.00 56 1018.1
20260831220209 93 210 0.0 0.0 0.00 0.00 0.00 56 1018.0
20260831215704 94 228 0.0 0.0 0.00 0.00 0.00 56 1018.2
20260831215200 94 212 0.0 0.0 0.00 0.00 0.00 56 1018.1
20260831214657 94 245 0.0 0.0 0.00 0.00 0.00 55 1018.1
20260831214153 93 244 0.0 0.0 0.00 0.00 0.00 54 1018.2
20260831213649 93 260 0.0 0.0 0.00 0.00 0.00 53 1018.1
20260831213144 93 226 0.0 0.0 0.00 0.00 0.00 56 1018.2
20260831212640 94 234 0.0 0.0 0.00 0.00 0.00 57 1018.2
20260831212137 94 235 0.0 0.0 0.00 0.00 0.00 55 1018.0
20260831211635 94 187 0.0 0.0 0.00 0.00 0.00 53 1018.1
20260831211135 95 247 0.0 0.0 0.00 0.00 0.00 53 1018.1
20260831210631 95 222 0.0 0.0 0.00 0.00 0.00 53 1018.4
20260831210127 97 209 0.0 0.0 0.00 0.00 0.00 50 1018.3
20260831205626 97 222 0.0 0.0 0.00 0.00 0.00 50 1018.2
20260831205122 96 240 0.0 0.0 0.00 0.00 0.00 51 1018.5
20260831204622 95 229 0.0 0.0 0.00 0.00 0.00 53 1018.3
20260831204120 92 242 0.0 0.0 0.00 0.00 0.00 57 1018.6
20260831203615 92 231 0.0 0.0 0.00 0.00 0.00 62 1018.6
20260831203114 93 138 0.0 0.0 0.00 0.00 0.00 55 1018.6
20260831202613 94 228 0.0 0.0 0.00 0.00 0.00 54 1018.5
20260831202108 96 194 0.0 0.0 0.00 0.00 0.00 52 1018.7
20260831201606 97 215 0.0 0.0 0.00 0.00 0.00 50 1018.6
20260831201102 99 0 0.0 0.0 0.00 0.00 0.00 47 1018.7
20260831200557 98 223 0.0 0.0 0.00 0.00 0.00 49 1018.6
20260831200052 98 254 0.0 0.0 0.00 0.00 0.00 50 1018.5
20260831195548 96 222 0.0 0.0 0.00 0.00 0.00 50 1018.7
20260831195042 97 257 0.0 0.0 0.00 0.00 0.00 50 1019.0
20260831194537 97 228 0.0 0.0 0.00 0.00 0.00 51 1018.9
20260831194032 96 295 0.0 0.0 0.00 0.00 0.00 52 1018.9
20260831193527 95 270 0.0 0.0 0.00 0.00 0.00 54 1018.9
20260831193022 96 236 0.0 0.0 0.00 0.00 0.00 54 1019.1
20260831192517 94 238 0.0 0.0 0.00 0.00 0.00 59 1019.1
20260831192013 90 238 0.0 0.0 0.00 0.00 0.00 61 1019.1
20260831191509 91 232 0.0 0.0 0.00 0.00 0.00 62 1019.4
20260831191005 91 212 0.0 0.0 0.00 0.00 0.00 59 1019.4
20260831190500 91 190 0.0 0.0 0.00 0.00 0.00 59 1019.4
20260831185958 91 141 0.0 0.0 0.00 0.00 0.00 60 1019.7
20260831185454 92 272 0.0 0.0 0.00 0.00 0.00 63 1019.4
20260831184954 93 232 0.0 0.0 0.00 0.00 0.00 59 1019.6
20260831184449 93 352 0.0 0.0 0.00 0.00 0.00 57 1019.7
20260831183944 95 210 0.0 0.0 0.00 0.00 0.00 55 1019.7
20260831183444 96 256 0.0 0.0 0.00 0.00 0.00 54 1019.9
20260831182943 96 252 0.0 0.0 0.00 0.00 0.00 56 1020.2
20260831182439 95 323 0.0 0.0 0.00 0.00 0.00 55 1020.0
20260831181934 94 194 0.0 0.0 0.00 0.00 0.00 56 1020.4
20260831181430 94 181 0.0 0.0 0.00 0.00 0.00 56 1020.4
20260831180929 93 207 0.0 0.0 0.00 0.00 0.00 56 1020.2
20260831180424 91 235 0.0 0.0 0.00 0.00 0.00 63 1020.5
20260831175923 91 124 0.0 0.0 0.00 0.00 0.00 61 1020.7
20260831175420 91 243 0.0 0.0 0.00 0.00 0.00 62 1020.6
20260831174915 92 205 0.0 0.0 0.00 0.00 0.00 59 1020.6
20260831174410 93 238 0.0 0.0 0.00 0.00 0.00 59 1020.6
20260831173909 94 239 0.0 0.0 0.00 0.00 0.00 58 1020.7
20260831173403 95 357 0.0 0.0 0.00 0.00 0.00 57 1020.8
20260831172859 94 45 0.0 0.0 0.00 0.00 0.00 56 1020.9
20260831172355 93 229 0.0 0.0 0.00 0.00 0.00 58 1021.0
20260831171854 95 253 0.0 0.0 0.00 0.00 0.00 55 1020.8
20260831171351 94 65 0.0 0.0 0.00 0.00 0.00 56 1021.1
20260831170848 92 207 0.0 0.0 0.00 0.00 0.00 59 1021.0
20260831170343 92 351 0.0 0.0 0.00 0.00 0.00 59 1021.2
20260831165839 93 141 0.0 0.0 0.00 0.00 0.00 60 1021.2
20260831165335 91 217 0.0 0.0 0.00 0.00 0.00 64 1021.3
20260831164832 90 247 0.0 0.0 0.00 0.00 0.00 64 1021.4
20260831164328 89 221 0.0 0.0 0.00 0.00 0.00 66 1021.5
20260831163823 89 295 0.0 0.0 0.00 0.00 0.00 65 1021.4
20260831163318 90 186 0.0 0.0 0.00 0.00 0.00 63 1021.4
20260831162816 89 184 0.0 0.0 0.00 0.00 0.00 66 1021.3
20260831162312 89 42 0.0 0.0 0.00 0.00 0.00 68 1021.4
20260831161811 90 238 0.0 0.0 0.00 0.00 0.00 67 1021.6
20260831161307 89 194 0.0 0.0 0.00 0.00 0.00 66 1021.4
20260831160802 88 189 0.0 0.0 0.00 0.00 0.00 70 1021.4
20260831160257 90 214 0.0 0.0 0.00 0.00 0.00 68 1021.6
20260831155756 91 249 0.0 0.0 0.00 0.00 0.00 64 1021.6
20260831155252 91 194 0.0 0.0 0.00 0.00 0.00 64 1021.4
20260831154748 90 260 0.0 0.0 0.00 0.00 0.00 65 1021.6
20260831154244 89 284 0.0 0.0 0.00 0.00 0.00 66 1021.5
20260831153742 88 237 0.0 0.0 0.00 0.00 0.00 71 1021.8
20260831153238 88 132 0.0 0.0 0.00 0.00 0.00 67 1021.8
20260831152734 90 97 0.0 0.0 0.00 0.00 0.00 64 1021.5
20260831152230 88 145 0.0 0.0 0.00 0.00 0.00 68 1021.5
20260831151729 86 223 0.0 0.0 0.00 0.00 0.00 75 1021.3
20260831151229 85 223 0.0 0.0 0.00 0.00 0.00 77 1021.4
20260831150724 85 353 0.0 0.0 0.00 0.00 0.00 75 1021.3
20260831150220 86 335 0.0 0.0 0.00 0.00 0.00 74 1021.8
20260831145719 87 284 0.0 0.0 0.00 0.00 0.00 75 1021.5
20260831145216 85 210 0.0 0.0 0.00 0.00 0.00 77 1021.9
20260831144711 83 188 0.0 0.0 0.00 0.00 0.00 82 1021.5
20260831144207 82 229 0.0 0.0 0.00 0.00 0.00 86 1021.6
20260831143706 82 230 0.0 0.0 0.00 0.00 0.00 87 1021.8
20260831143202 82 218 0.0 0.0 0.00 0.00 0.00 86 1021.9
20260831142658 81 227 0.0 0.0 0.00 0.00 0.00 89 1021.5
20260831142153 81 234 0.0 0.0 0.00 0.00 0.00 89 1021.9
20260831141652 81 234 0.0 0.0 0.00 0.00 0.00 90 1021.8
20260831141147 81 234 0.0 0.0 0.00 0.00 0.00 90 1021.6
20260831140646 82 198 0.0 0.0 0.00 0.00 0.00 89 1021.9
20260831140141 82 0 0.0 0.0 0.00 0.00 0.00 88 1021.6
20260831135639 82 203 0.0 0.0 0.00 0.00 0.00 88 1021.8
20260831135135 82 187 0.0 0.0 0.00 0.00 0.00 88 1021.8
20260831134631 81 202 0.0 0.0 0.00 0.00 0.00 89 1021.6
20260831134126 81 13 0.0 0.0 0.00 0.00 0.00 89 1021.8
20260831133625 81 240 0.0 0.0 0.00 0.00 0.00 89 1021.9
20260831133120 81 10 0.0 0.0 0.00 0.00 0.00 89 1021.9
20260831132616 81 151 0.0 0.0 0.00 0.00 0.00 89 1021.9
20260831132115 82 151 0.0 0.0 0.00 0.00 0.00 87 1021.9
20260831131610 80 154 0.0 0.0 0.00 0.00 0.00 90 1021.8
20260831131107 78 187 0.0 0.0 0.00 0.00 0.00 95 1021.9
20260831130601 77 173 0.0 0.0 0.00 0.00 0.00 98 1022.0
20260831130056 75 194 0.0 0.0 0.00 0.00 0.00 99 1021.8
20260831125555 75 194 0.0 0.0 0.00 0.00 0.00 99 1021.8
20260831125051 74 194 0.0 0.0 0.00 0.00 0.00 99 1021.8
20260831124547 73 194 0.0 0.0 0.00 0.00 0.00 99 1021.9
20260831124043 73 194 0.0 0.0 0.00 0.00 0.00 99 1021.4
20260831123542 72 194 0.0 0.0 0.00 0.00 0.00 99 1021.8
20260831123036 72 194 0.0 0.0 0.00 0.00 0.00 99 1021.6
20260831122531 71 194 0.0 0.0 0.00 0.00 0.00 99 1021.5
20260831122026 71 194 0.0 0.0 0.00 0.00 0.00 99 1021.4
20260831121521 71 194 0.0 0.0 0.00 0.00 0.00 99 1021.6
20260831121017 71 194 0.0 0.0 0.00 0.00 0.00 99 1021.4
20260831120516 70 194 0.0 0.0 0.00 0.00 0.00 99 1021.5
20260831120012 70 194 0.0 0.0 0.00 0.00 0.00 99 1021.4
20260831115508 70 194 0.0 0.0 0.00 0.00 0.00 99 1021.2
20260831115003 70 194 0.0 0.0 0.00 0.00 0.00 99 1021.4
20260831114502 70 194 0.0 0.0 0.00 0.00 0.00 99 1021.3
20260831113957 70 194 0.0 0.0 0.00 0.00 0.00 99 1021.3
20260831113456 70 194 0.0 0.0 0.00 0.00 0.00 99 1021.2
20260831112952 69 195 0.0 0.0 0.00 0.00 0.00 99 1021.1
20260831112451 69 195 0.0 0.0 0.00 0.00 0.00 99 1021.1
20260831111947 69 195 0.0 0.0 0.00 0.00 0.00 99 1021.1
20260831111443 69 195 0.0 0.0 0.00 0.00 0.00 99 1020.9
20260831110938 69 195 0.0 0.0 0.00 0.00 0.00 99 1020.9
20260831110433 69 195 0.0 0.0 0.00 0.00 0.00 99 1021.0
20260831105932 69 195 0.0 0.0 0.00 0.00 0.00 99 1021.1
20260831105427 70 195 0.0 0.0 0.00 0.00 0.00 99 1021.0
20260831104923 70 195 0.0 0.0 0.00 0.00 0.00 99 1020.9
20260831104419 70 194 0.0 0.0 0.00 0.00 0.00 99 1020.9
20260831103914 70 194 0.0 0.0 0.00 0.00 0.00 99 1021.0
20260831103414 70 193 0.0 0.0 0.00 0.00 0.00 99 1021.0
20260831102909 70 193 0.0 0.0 0.00 0.00 0.00 99 1020.9
20260831102404 70 191 0.0 0.0 0.00 0.00 0.00 99 1021.0
20260831101859 70 190 0.0 0.0 0.00 0.00 0.00 99 1021.0
20260831101354 70 232 0.0 0.0 0.00 0.00 0.00 99 1020.8
20260831100851 70 232 0.0 0.0 0.00 0.00 0.00 99 1020.8
20260831100347 70 232 0.0 0.0 0.00 0.00 0.00 99 1020.7
20260831095846 70 232 0.0 0.0 0.00 0.00 0.00 99 1020.8
20260831095345 70 232 0.0 0.0 0.00 0.00 0.00 99 1020.8
20260831094841 70 232 0.0 0.0 0.00 0.00 0.00 99 1020.8
20260831094336 70 232 0.0 0.0 0.00 0.00 0.00 99 1020.8
20260831093832 70 232 0.0 0.0 0.00 0.00 0.00 99 1020.8
20260831093327 70 232 0.0 0.0 0.00 0.00 0.00 99 1020.7
20260831092824 70 232 0.0 0.0 0.00 0.00 0.00 99 1020.7
20260831092319 70 232 0.0 0.0 0.00 0.00 0.00 99 1020.7
20260831091814 70 232 0.0 0.0 0.00 0.00 0.00 99 1020.8
20260831091310 71 232 0.0 0.0 0.00 0.00 0.00 99 1020.7
20260831090805 71 232 0.0 0.0 0.00 0.00 0.00 99 1020.7
20260831090301 71 233 0.0 0.0 0.00 0.00 0.00 99 1020.8
20260831085757 71 234 0.0 0.0 0.00 0.00 0.00 99 1020.5
20260831085251 71 235 0.0 0.0 0.00 0.00 0.00 99 1020.5
20260831084746 71 235 0.0 0.0 0.00 0.00 0.00 99 1020.3
20260831084243 71 235 0.0 0.0 0.00 0.00 0.00 99 1020.3
20260831083738 71 235 0.0 0.0 0.00 0.00 0.00 99 1020.5
20260831083234 71 235 0.0 0.0 0.00 0.00 0.00 99 1020.6
20260831082732 71 235 0.0 0.0 0.00 0.00 0.00 99 1020.5
20260831082228 71 235 0.0 0.0 0.00 0.00 0.00 99 1020.3
20260831081723 71 235 0.0 0.0 0.00 0.00 0.00 99 1020.5
20260831081219 71 235 0.0 0.0 0.00 0.00 0.00 99 1020.4
20260831080714 71 235 0.0 0.0 0.00 0.00 0.00 99 1020.2
20260831080214 71 235 0.0 0.0 0.00 0.00 0.00 99 1020.4
20260831075710 71 235 0.0 0.0 0.00 0.00 0.00 99 1020.2
20260831075206 71 235 0.0 0.0 0.00 0.00 0.00 99 1020.3
20260831074705 71 235 0.0 0.0 0.00 0.00 0.00 99 1020.3
20260831074204 72 235 0.0 0.0 0.00 0.00 0.00 99 1020.4
20260831073700 72 235 0.0 0.0 0.00 0.00 0.00 99 1020.4
20260831073159 72 235 0.0 0.0 0.00 0.00 0.00 99 1020.3
20260831072655 71 235 0.0 0.0 0.00 0.00 0.00 99 1020.1
20260831072151 71 235 0.0 0.0 0.00 0.00 0.00 99 1020.2
20260831071650 72 235 0.0 0.0 0.00 0.00 0.00 99 1019.9
20260831071144 72 235 0.0 0.0 0.00 0.00 0.00 99 1020.3
20260831070639 72 235 0.0 0.0 0.00 0.00 0.00 99 1020.2
20260831070133 72 235 0.0 0.0 0.00 0.00 0.00 99 1020.4
20260831065632 72 235 0.0 0.0 0.00 0.00 0.00 99 1020.5
20260831065131 72 235 0.0 0.0 0.00 0.00 0.00 99 1020.6
20260831064626 72 235 0.0 0.0 0.00 0.00 0.00 99 1020.5
20260831064121 72 235 0.0 0.0 0.00 0.00 0.00 99 1020.4
20260831063617 72 235 0.0 0.0 0.00 0.00 0.00 99 1020.6
20260831063112 72 235 0.0 0.0 0.00 0.00 0.00 99 1020.7
20260831062607 72 235 0.0 0.0 0.00 0.00 0.00 99 1020.7
20260831062107 72 235 0.0 0.0 0.00 0.00 0.00 99 1020.5
20260831061604 72 235 0.0 0.0 0.00 0.00 0.00 99 1020.7
20260831061101 72 235 0.0 0.0 0.00 0.00 0.00 99 1020.8
20260831060556 72 235 0.0 0.0 0.00 0.00 0.00 99 1020.8
20260831060051 72 235 0.0 0.0 0.00 0.00 0.00 99 1020.8
20260831055545 72 235 0.0 0.0 0.00 0.00 0.00 99 1021.0
20260831055041 72 235 0.0 0.0 0.00 0.00 0.00 99 1020.9
20260831054540 72 235 0.0 0.0 0.00 0.00 0.00 99 1020.8
20260831054040 72 235 0.0 0.0 0.00 0.00 0.00 99 1020.8
20260831053538 72 234 0.0 0.0 0.00 0.00 0.00 99 1020.7
20260831053033 72 234 0.0 0.0 0.00 0.00 0.00 99 1020.6
20260831052532 72 234 0.0 0.0 0.00 0.00 0.00 99 1020.7
20260831052026 72 234 0.0 0.0 0.00 0.00 0.00 99 1020.6
20260831051524 72 234 0.0 0.0 0.00 0.00 0.00 99 1020.8
20260831051024 73 234 0.0 0.0 0.00 0.00 0.00 99 1020.7
20260831050523 73 234 0.0 0.0 0.00 0.00 0.00 99 1020.6
20260831050022 73 234 0.0 0.0 0.00 0.00 0.00 99 1020.8
20260831045521 73 234 0.0 0.0 0.00 0.00 0.00 99 1020.8
20260831045017 73 234 0.0 0.0 0.00 0.00 0.00 99 1021.0
20260831044512 73 234 0.0 0.0 0.00 0.00 0.00 99 1020.9
20260831044008 73 234 0.0 0.0 0.00 0.00 0.00 99 1020.8
20260831043507 73 234 0.0 0.0 0.00 0.00 0.00 99 1021.1
20260831043002 73 234 0.0 0.0 0.00 0.00 0.00 99 1020.9
20260831042457 73 234 0.0 0.0 0.00 0.00 0.00 99 1020.9
20260831041956 73 234 0.0 0.0 0.00 0.00 0.00 99 1020.9
20260831041451 73 229 0.0 0.0 0.00 0.00 0.00 99 1021.0
20260831040946 73 229 0.0 0.0 0.00 0.00 0.00 98 1021.1
20260831040441 73 224 0.0 0.0 0.00 0.00 0.00 98 1021.1
20260831035938 73 224 0.0 0.0 0.00 0.00 0.00 98 1021.3
20260831035437 74 224 0.0 0.0 0.00 0.00 0.00 98 1021.1
20260831034932 74 224 0.0 0.0 0.00 0.00 0.00 98 1021.0
20260831034427 74 220 0.0 0.0 0.00 0.00 0.00 98 1021.2
20260831033923 74 232 0.0 0.0 0.00 0.00 0.00 98 1021.0
20260831033418 74 231 0.0 0.0 0.00 0.00 0.00 98 1021.0
20260831032914 74 231 0.0 0.0 0.00 0.00 0.00 97 1020.9
20260831032408 74 231 0.0 0.0 0.00 0.00 0.00 97 1021.0
20260831031903 74 231 0.0 0.0 0.00 0.00 0.00 97 1021.1
20260831031402 74 231 0.0 0.0 0.00 0.00 0.00 97 1021.1
20260831030857 75 231 0.0 0.0 0.00 0.00 0.00 96 1021.2
20260831030356 75 231 0.0 0.0 0.00 0.00 0.00 96 1021.1
20260831025854 75 231 0.0 0.0 0.00 0.00 0.00 96 1021.3
20260831025349 75 225 0.0 0.0 0.00 0.00 0.00 95 1021.5
20260831024845 75 221 0.0 0.0 0.00 0.00 0.00 95 1021.3
20260831024344 75 229 0.0 0.0 0.00 0.00 0.00 95 1021.3
20260831023843 75 180 0.0 0.0 0.00 0.00 0.00 95 1021.0
20260831023341 75 179 0.0 0.0 0.00 0.00 0.00 95 1021.0
20260831022837 75 190 0.0 0.0 0.00 0.00 0.00 95 1020.9
20260831022336 76 244 0.0 0.0 0.00 0.00 0.00 95 1021.0
20260831021831 76 236 0.0 0.0 0.00 0.00 0.00 94 1020.8
20260831021330 76 236 0.0 0.0 0.00 0.00 0.00 94 1021.0
20260831020826 76 236 0.0 0.0 0.00 0.00 0.00 93 1020.7
20260831020321 77 236 0.0 0.0 0.00 0.00 0.00 92 1020.9
20260831015816 77 236 0.0 0.0 0.00 0.00 0.00 91 1020.8
20260831015312 77 236 0.0 0.0 0.00 0.00 0.00 91 1020.7
20260831014811 77 174 0.0 0.0 0.00 0.00 0.00 90 1020.9
20260831014306 77 174 0.0 0.0 0.00 0.00 0.00 90 1020.8
20260831013803 78 174 0.0 0.0 0.00 0.00 0.00 89 1020.9
20260831013302 78 175 0.0 0.0 0.00 0.00 0.00 89 1020.7
20260831012757 78 187 0.0 0.0 0.00 0.00 0.00 89 1021.0
20260831012253 78 187 0.0 0.0 0.00 0.00 0.00 89 1020.6
20260831011751 78 187 0.0 0.0 0.00 0.00 0.00 88 1020.4
20260831011247 78 187 0.0 0.0 0.00 0.00 0.00 88 1020.5
20260831010743 79 187 0.0 0.0 0.00 0.00 0.00 88 1020.6
20260831010237 79 187 0.0 0.0 0.00 0.00 0.00 87 1020.4
20260831005732 79 186 0.0 0.0 0.00 0.00 0.00 86 1020.4
20260831005228 80 186 0.0 0.0 0.00 0.00 0.00 86 1020.3
20260831004723 80 185 0.0 0.0 0.00 0.00 0.00 85 1020.2
20260831004219 80 189 0.0 0.0 0.00 0.00 0.00 84 1020.4
20260831003715 80 189 0.0 0.0 0.00 0.00 0.00 84 1020.4
20260831003211 81 184 0.0 0.0 0.00 0.00 0.00 83 1020.2
20260831002709 81 201 0.0 0.0 0.00 0.00 0.00 82 1020.3
20260831002204 82 223 0.0 0.0 0.00 0.00 0.00 82 1020.3
20260831001701 82 172 0.0 0.0 0.00 0.00 0.00 81 1020.0
20260831001200 82 219 0.0 0.0 0.00 0.00 0.00 81 1020.0
20260831000657 83 211 0.0 0.0 0.00 0.00 0.00 81 1020.2
20260831000152 83 234 0.0 0.0 0.00 0.00 0.00 81 1020.3
20260830235650 84 180 0.0 0.0 0.00 0.00 0.00 81 1020.0
20260830235146 84 172 0.0 0.0 0.00 0.00 0.00 79 1020.0
20260830234641 84 188 0.0 0.0 0.00 0.00 0.00 78 1020.0